Location: Arthez
(43.0833°N, 0.2500°W)
Time: 12:05:09
(UTC+00:00)

NOSS 3-1 (A) - Visible Passes

Search period start: 29 May 2022 00:00
Search period end: 08 June 2022 00:00
Orbit: 711 x 1501 km, 63.4° (Epoch: 21 May)

Date Brightness Start Highest point End Pass type
(mag) Time Alt. Az. Time Alt. Az. Time Alt. Az.
29 May 4.8 01:07:14 10° NW 01:14:09 34° WSW 01:15:32 33° SW visible
29 May 5.9 20:40:54 10° NNW 20:45:33 18° NNE 20:50:43 10° ENE visible
29 May 4.7 22:31:10 10° NNW 22:38:18 48° NE 22:44:14 20° ESE visible
30 May 4.4 00:22:03 10° NW 00:29:29 51° WSW 00:31:37 42° SSW visible
30 May 5.1 21:46:32 10° NNW 21:53:08 36° NE 22:00:23 11° ESE visible
30 May 4.1 23:37:05 10° NW 23:44:43 73° WSW 23:47:48 44° SSE visible
31 May 5.6 01:30:08 10° WNW 01:34:56 17° WSW 01:35:12 17° WSW visible
31 May 5.5 21:01:54 10° NNW 21:07:52 27° NE 21:14:39 10° E visible
31 May 4.1 22:52:15 10° NW 22:59:52 81° NE 23:04:03 35° SE visible
01 Jun 5.2 00:44:05 10° WNW 00:50:27 27° WSW 00:51:27 26° WSW visible
01 Jun 5.7 20:17:16 10° NNW 20:22:25 21° NNE 20:28:14 10° ENE visible
01 Jun 4.4 22:07:33 10° NNW 22:14:54 59° NE 22:20:22 24° ESE visible
01 Jun 4.7 23:58:41 10° NW 00:05:52 40° WSW 00:07:46 36° SW visible
02 Jun 4.9 21:22:53 10° NNW 21:29:50 43° NE 21:36:44 14° ESE visible
02 Jun 4.3 23:13:36 10° NW 23:21:10 59° WSW 23:24:09 41° S visible
03 Jun 5.9 01:08:14 10° W 01:11:07 12° WSW 01:11:34 12° WSW visible
03 Jun 5.2 20:38:14 10° NNW 20:44:37 32° NE 20:51:57 10° E visible
03 Jun 4.1 22:28:42 10° NW 22:36:22 83° SW 22:40:35 35° SSE visible
04 Jun 5.5 00:21:10 10° WNW 00:26:44 21° WSW 00:28:01 20° WSW visible
04 Jun 4.2 21:43:56 10° NNW 21:51:27 72° NE 21:57:05 25° SE visible
04 Jun 5.1 23:35:26 10° NW 23:42:12 32° WSW 23:44:30 28° SW visible
05 Jun 4.6 20:59:14 10° NNW 21:06:27 52° NE 21:13:37 15° ESE visible
05 Jun 4.7 22:50:11 10° NW 22:57:33 47° WSW 23:01:02 32° SSW visible
06 Jun 5.0 20:14:35 10° NNW 20:21:19 38° NE 20:29:08 10° ESE visible
06 Jun 4.3 22:05:11 10° NW 22:12:49 68° WSW 22:17:38 30° SSE visible
06 Jun 5.9 23:58:40 10° WNW 00:02:55 15° WSW 00:05:04 14° WSW visible
07 Jun 4.2 21:20:21 10° NW 21:27:58 87° NE 21:34:16 22° SE visible
07 Jun 5.5 23:12:22 10° WNW 23:18:29 24° WSW 23:21:42 20° SW visible
